Location: *
(50.3440°N, 18.6237°E)
Time: 16:47:48
(UTC+00:00)

SL-16 R/B - Pass Details

Date: 30 November 2020
Orbit: 841 x 849 km, 71.0° (Epoch: 17 January)

Event Time Altitude Azimuth Distance (km) Brightness Sun altitude
Rises 17:07:15 0° 229° (SW) 3,389 6.3 -21.7°
Reaches altitude 10° 17:09:48 10° 236° (SW) 2,457 5.5 -22.1°
Maximum altitude 17:15:11 45° 308° (NW) 1,145 3.1 -23.0°
Enters shadow 17:19:04 18° 14° (NNE) 1,944 3.9 -23.6°
